Wind_Speed
38 37 34 32 32 31 27 24 26 27 25 23 20 18 17 17 17 18 16 14 13 13 13 15 15 16 16 17 19 21 22 22 22 22 20 21 19 18 20 20 18 18 20 24 24 22 24 23 23
41 38 36 35 34 32 23 21 31 27 31 24 23 19 20 18 18 15 15 15 15 15 14 15 17 17 17 18 20 20 20 21 22 22 21 19 19 18 18 17 19 18 18 18 20 20 21 23 24
36 36 36 36 36 33 20 21 32 33 29 27 24 21 22 21 18 16 13 15 16 15 16 14 16 17 19 20 20 20 21 21 21 21 21 18 19 17 15 16 19 20 20 20 18 18 20 22 24
34 35 37 38 36 29 30 27 37 34 32 29 26 23 19 23 19 16 15 15 18 18 17 16 17 17 18 20 21 22 23 23 21 20 20 20 18 15 16 14 20 18 23 20 21 21 17 18 23
33 35 36 38 38 29 34 35 34 33 35 31 27 26 21 22 19 18 17 16 19 20 18 17 19 18 18 20 21 24 23 23 21 20 21 19 14 16 15 16 6 16 21 21 26 27 20 19 23
37 36 38 37 35 29 34 37 37 34 36 33 29 26 24 25 23 19 17 17 19 21 20 17 19 19 20 20 21 23 24 23 21 20 19 17 19 19 19 12 19 19 20 25 29 28 20 27 25
39 39 38 38 37 33 35 37 38 35 35 34 34 29 26 28 27 19 16 17 20 24 24 19 20 19 20 21 21 22 24 23 22 22 20 19 19 20 21 16 17 20 21 21 14 20 26 24 28
41 43 42 40 41 40 35 39 39 38 37 42 32 33 31 34 23 23 17 18 21 24 26 24 21 20 19 21 21 21 23 24 23 24 22 21 20 20 19 15 17 21 22 21 24 22 18 16 24
43 46 47 41 41 41 41 41 36 41 41 42 36 37 38 29 29 28 19 20 22 25 27 27 25 22 19 20 21 21 22 23 25 25 23 23 21 21 20 19 19 21 23 20 22 22 17 17 22
48 46 42 42 42 46 42 40 41 43 43 46 42 42 39 35 32 32 22 21 23 26 27 28 29 25 21 19 21 22 22 23 26 26 24 23 23 23 23 22 21 21 22 21 20 20 22 19 22
49 47 41 44 47 51 39 42 44 46 44 47 50 45 42 36 34 31 27 23 24 26 28 31 31 29 23 18 21 22 22 23 26 26 25 22 22 23 24 25 24 24 22 22 21 22 24 23 24
53 49 46 45 50 52 43 44 45 48 46 48 52 49 42 38 34 32 31 26 25 28 30 34 33 31 26 21 22 23 23 23 26 27 25 23 23 23 21 23 25 24 24 23 23 25 26 25 26
58 53 52 51 52 54 44 48 47 47 51 51 50 52 48 42 37 35 34 31 27 28 32 36 35 33 29 26 21 23 23 23 27 27 25 24 23 22 21 21 22 23 24 25 25 26 28 25 27
62 63 58 56 56 54 50 49 50 50 51 54 49 53 50 43 39 40 39 35 29 30 35 36 36 36 33 30 23 24 23 23 26 26 25 24 23 22 19 23 24 25 24 26 28 25 31 22 26
66 66 65 60 58 55 52 51 50 48 52 54 51 53 51 46 42 39 39 37 34 33 36 36 37 37 37 34 26 25 23 23 27 26 26 23 22 20 19 23 26 28 27 27 28 29 30 23 30
67 67 66 62 60 58 55 51 47 49 52 53 51 51 53 49 45 42 41 40 39 35 38 39 39 39 40 37 31 27 25 24 26 26 25 23 22 21 21 23 25 27 26 28 26 31 31 30 33
66 66 66 63 60 61 58 52 48 48 51 53 51 49 52 50 49 45 43 40 39 40 40 41 40 39 41 40 35 29 27 26 26 25 25 23 24 22 22 23 23 24 26 27 27 31 36 34 33
66 66 66 62 61 61 57 53 52 48 51 52 51 50 51 50 46 45 45 44 44 43 41 40 42 42 42 43 39 33 30 27 26 25 25 24 25 24 24 23 23 22 25 24 30 31 39 39 38
61 54 55 64 62 60 58 57 54 49 52 53 52 50 47 47 47 46 48 47 48 46 43 40 42 41 44 45 43 37 32 28 27 25 26 26 26 26 25 23 22 21 23 24 27 34 42 37 33
62 62 64 63 58 62 60 55 53 52 51 51 50 47 48 48 47 48 48 48 48 47 45 42 40 41 44 46 46 42 36 28 28 26 26 27 26 27 22 22 20 19 21 22 23 28 43 37 47
65 64 60 56 55 60 59 54 52 49 50 50 49 50 49 48 48 49 49 49 49 47 48 46 43 40 42 43 47 47 40 30 27 26 25 27 26 26 21 21 19 19 18 20 21 24 36 39 42
62 61 55 54 55 55 47 49 34 49 52 50 51 50 50 49 50 49 48 48 49 49 48 46 47 41 42 41 45 47 42 33 28 26 26 28 27 26 21 20 18 18 16 17 16 8 34 31 33
53 48 44 47 48 50 50 49 39 43 44 46 47 48 48 49 46 46 46 47 47 45 45 43 45 43 43 40 44 47 40 35 28 26 26 27 26 26 20 20 18 17 16 16 18 13 9 23 32
42 41 41 36 33 44 44 42 24 30 41 45 43 42 44 44 44 43 44 44 43 43 43 42 42 42 42 40 44 46 38 38 28 27 25 26 26 25 21 19 18 19 17 16 16 15 15 11 10
42 38 30 30 34 41 25 33 25 34 39 34 38 40 41 43 44 44 42 41 42 41 43 44 40 41 41 38 44 45 39 39 28 27 23 26 25 23 21 20 18 19 19 17 17 17 24 19 18
38 37 31 29 22 24 31 26 22 39 29 29 33 38 36 39 40 41 40 41 41 42 44 46 43 43 42 39 44 43 43 36 28 26 23 26 23 21 19 20 17 16 16 15 14 14 20 23 25
32 36 33 18 25 25 15 21 28 27 33 28 31 32 33 33 35 37 39 40 39 42 46 45 43 43 44 41 42 43 40 34 28 25 23 27 23 21 17 15 15 13 10 10 9 11 13 17 25
20 32 33 29 24 21 14 15 22 20 27 26 28 27 28 32 34 36 36 38 40 40 40 40 41 42 42 39 42 42 39 34 28 23 25 27 25 23 18 13 14 11 11 11 12 14 15 13 21
29 26 26 25 25 19 15 19 25 22 23 23 27 25 27 32 35 36 36 35 36 37 39 39 38 41 35 40 41 46 41 30 26 23 25 26 26 24 21 14 14 13 11 10 10 9 10 9 10
21 21 24 24 24 23 20 19 16 19 22 25 25 23 25 32 34 37 34 32 36 40 39 35 34 34 37 41 48 49 32 29 27 23 25 26 28 24 24 21 15 13 14 14 14 12 11 9 10
Wind_Direction
263 264 266 265 262 258 258 258 258 265 258 256 263 270 273 277 283 284 302 312 315 318 330 339 336 324 315 307 305 304 301 304 301 296 291 295 288 279 272 267 269 271 271 263 255 250 244 233 226
262 262 261 260 257 255 254 261 258 259 264 258 263 269 272 272 276 282 290 298 315 317 327 334 332 327 321 314 309 308 304 301 303 298 294 292 287 276 274 280 271 269 268 266 257 243 235 229 224
260 259 256 254 253 250 242 247 254 257 265 259 263 267 271 272 280 284 291 293 304 311 320 328 324 323 320 318 311 309 308 302 301 299 294 291 287 281 282 279 268 263 269 265 263 253 238 228 223
257 255 252 253 251 246 239 228 258 265 260 257 259 265 269 272 277 277 283 287 297 304 313 317 314 315 316 316 313 310 308 302 301 299 295 294 294 286 278 262 270 254 262 251 255 249 236 236 229
254 253 252 251 249 243 241 243 256 258 261 259 258 266 261 265 271 273 276 280 291 299 307 311 307 309 312 311 314 315 312 305 300 303 296 296 295 288 278 291 244 257 266 280 266 263 240 235 229
255 253 251 253 255 244 240 246 250 254 260 263 260 256 260 260 263 268 273 278 286 293 300 305 300 304 307 310 314 314 313 309 304 304 303 295 285 275 277 266 273 264 277 288 270 248 246 243 236
250 252 254 253 252 243 240 241 251 253 257 260 257 259 255 256 260 264 266 274 284 291 296 295 294 297 302 308 311 313 310 308 304 303 302 299 290 274 278 276 272 276 278 274 263 238 269 246 230
249 250 250 249 251 247 239 244 247 253 256 255 256 252 252 255 266 262 260 269 277 285 292 293 289 292 296 302 308 311 308 307 304 302 299 296 290 277 269 269 269 270 273 269 262 258 259 253 242
247 246 250 248 249 250 245 248 245 250 250 257 251 254 252 260 254 260 252 261 268 278 286 288 288 289 291 299 305 307 306 303 300 300 299 298 292 274 266 264 263 269 269 268 269 259 256 241 248
247 248 248 248 247 248 245 245 240 246 250 257 256 254 256 252 250 258 261 257 262 271 279 280 285 286 287 295 301 303 305 301 295 295 295 296 289 277 272 265 262 267 272 269 272 259 256 250 254
247 247 251 247 246 247 245 245 241 246 244 253 258 258 257 256 257 257 262 259 260 268 272 275 278 280 283 290 296 300 302 299 291 291 290 290 284 278 272 268 267 270 272 266 269 254 249 249 264
249 246 244 246 249 247 244 241 240 244 245 250 255 258 256 258 258 258 263 264 262 263 265 269 272 277 282 287 292 297 301 299 293 290 289 287 280 274 276 274 273 270 271 268 264 253 248 249 262
250 247 247 244 245 249 241 243 241 246 249 249 253 254 256 257 258 259 262 262 260 259 260 264 270 275 279 283 286 290 295 295 294 292 289 284 278 276 279 280 278 275 270 273 263 256 250 258 211
247 249 246 244 243 245 245 244 242 242 244 246 248 254 255 256 255 257 258 262 259 254 257 260 266 271 274 277 281 285 290 294 293 292 288 280 275 277 281 280 280 276 271 267 263 268 249 232 204
243 245 247 244 247 244 245 244 246 245 245 247 249 252 255 256 254 254 259 261 263 254 255 257 258 266 270 273 277 279 284 290 291 290 288 279 275 275 283 284 282 275 273 269 261 274 240 232 193
240 243 245 246 246 248 246 242 245 247 245 247 248 249 256 256 257 256 256 258 259 255 254 257 254 260 266 270 274 275 279 282 286 287 286 277 276 279 284 289 283 272 267 267 265 272 229 222 203
239 242 244 247 250 248 245 245 246 248 248 245 246 246 250 254 256 258 260 262 263 261 256 257 254 257 262 266 270 271 274 277 284 286 285 276 277 282 287 295 284 275 266 266 279 255 213 221 215
239 240 242 244 246 248 247 245 247 245 246 247 245 246 247 251 256 263 266 268 265 263 259 258 255 255 262 265 267 268 268 271 279 283 282 273 278 282 288 292 285 277 272 254 290 226 209 220 213
235 238 245 239 242 247 246 242 247 244 245 243 244 245 251 256 258 259 261 262 263 262 259 254 255 257 261 264 267 267 264 268 275 280 279 271 277 281 285 290 284 278 272 253 292 215 211 214 215
232 231 234 236 234 241 244 244 244 247 245 247 247 247 253 254 252 253 256 260 261 261 263 260 256 254 258 262 267 268 263 263 269 276 278 272 277 282 279 288 286 280 270 255 306 213 211 213 221
231 231 230 234 234 237 240 242 245 247 246 246 246 249 250 251 252 254 255 258 261 263 263 263 258 251 253 256 262 267 266 261 265 273 274 270 276 280 276 282 286 281 265 253 285 222 208 220 217
234 229 230 229 230 232 240 239 253 247 245 247 248 248 251 252 254 254 256 257 258 260 261 262 262 256 249 251 256 260 265 258 263 271 270 269 273 281 273 274 278 282 257 250 253 258 207 218 221
234 228 222 224 227 228 231 237 237 249 251 247 249 253 254 254 253 252 252 253 254 256 258 256 257 256 250 250 252 256 259 257 260 267 269 266 271 278 273 273 276 278 268 247 246 267 236 222 231
223 218 221 217 221 228 227 236 237 256 247 249 250 251 252 252 251 250 251 251 251 251 251 252 252 252 251 250 251 253 254 254 257 264 269 262 268 276 271 271 272 271 275 268 251 233 232 281 285
214 212 215 219 221 225 230 231 231 237 250 251 249 249 251 254 254 254 252 249 248 247 247 250 250 250 249 248 248 249 249 251 254 262 266 257 263 269 267 270 274 272 264 266 254 235 226 232 234
218 209 202 220 227 227 230 230 226 241 252 253 251 254 255 254 253 253 251 248 246 248 248 249 250 249 248 244 241 245 244 247 253 259 262 253 255 265 266 268 275 276 265 252 240 237 243 245 245
219 225 208 196 196 181 217 211 237 251 247 246 251 251 251 252 250 249 249 251 251 247 248 250 249 246 245 238 236 239 240 244 251 257 256 249 250 257 263 267 274 272 239 234 247 241 250 254 254
209 202 206 197 201 211 221 210 235 245 249 253 250 254 253 249 248 249 250 253 254 250 244 242 240 240 239 228 231 236 236 241 247 255 253 248 246 253 254 256 262 265 255 251 251 259 261 269 233
184 192 192 200 208 192 193 216 231 241 254 255 256 253 254 256 254 252 251 250 249 247 243 236 233 234 224 224 229 230 231 237 245 251 249 244 243 250 249 245 252 249 246 247 252 256 259 261 260
180 193 197 204 206 213 210 229 238 246 260 257 255 251 251 253 255 255 251 244 241 242 237 229 224 223 221 223 218 226 225 236 247 252 246 242 243 248 249 244 242 249 248 241 240 245 245 248 249
Height
5836 5837 5837 5838 5841 5840 5842 5843 5842 5842 5842 5842 5843 5844 5844 5842 5841 5841 5836 5835 5835 5834 5832 5831 5830 5829 5827 5826 5824 5823 5822 5820 5819 5818 5816 5815 5814 5812 5811 5812 5813 5813 5813 5813 5812 5813 5815 5817 5819
5829 5830 5831 5832 5834 5834 5839 5839 5835 5837 5835 5838 5838 5839 5839 5838 5837 5836 5834 5832 5831 5830 5829 5828 5827 5825 5824 5823 5821 5820 5819 5817 5815 5814 5813 5811 5811 5809 5808 5809 5809 5809 5808 5808 5809 5809 5810 5813 5815
5822 5822 5823 5824 5826 5830 5836 5837 5830 5830 5831 5833 5834 5834 5834 5833 5833 5831 5830 5829 5827 5827 5826 5824 5824 5822 5821 5820 5818 5817 5816 5815 5813 5811 5809 5807 5806 5805 5807 5807 5806 5806 5805 5807 5807 5807 5808 5809 5812
5815 5816 5817 5817 5820 5826 5827 5828 5823 5825 5826 5828 5829 5830 5830 5828 5828 5827 5826 5825 5823 5823 5823 5821 5820 5819 5818 5816 5815 5814 5813 5811 5809 5807 5805 5804 5802 5803 5803 5801 5802 5801 5801 5802 5803 5804 5804 5807 5809
5808 5809 5810 5811 5814 5819 5818 5818 5818 5820 5820 5823 5824 5825 5824 5824 5823 5823 5822 5821 5820 5819 5819 5818 5817 5816 5814 5813 5812 5811 5809 5807 5806 5804 5802 5800 5801 5800 5800 5799 5798 5799 5799 5798 5798 5801 5802 5804 5804
5801 5802 5803 5806 5809 5813 5812 5810 5811 5814 5815 5818 5819 5819 5819 5818 5818 5818 5818 5817 5816 5816 5816 5815 5814 5812 5811 5810 5808 5807 5805 5804 5802 5801 5799 5798 5798 5797 5795 5796 5796 5795 5795 5793 5790 5795 5799 5800 5801
5793 5794 5797 5800 5802 5805 5805 5804 5805 5808 5809 5812 5812 5814 5815 5812 5812 5814 5813 5813 5812 5811 5811 5811 5810 5809 5808 5806 5805 5804 5802 5800 5799 5798 5796 5795 5793 5793 5792 5793 5792 5791 5792 5791 5790 5792 5793 5792 5796
5784 5784 5787 5791 5793 5796 5798 5796 5799 5800 5803 5801 5807 5808 5808 5804 5809 5808 5808 5808 5808 5807 5807 5806 5807 5806 5805 5803 5802 5800 5798 5797 5795 5793 5793 5791 5789 5788 5789 5789 5788 5788 5788 5788 5788 5788 5789 5788 5790
5774 5773 5777 5783 5785 5789 5789 5790 5793 5792 5793 5793 5797 5799 5798 5803 5802 5802 5803 5803 5803 5803 5802 5802 5801 5802 5801 5800 5799 5797 5795 5793 5791 5790 5788 5787 5786 5784 5785 5786 5785 5784 5784 5784 5782 5783 5784 5784 5786
5762 5765 5772 5775 5777 5776 5781 5784 5785 5785 5785 5784 5788 5789 5793 5795 5797 5796 5798 5798 5798 5798 5798 5797 5796 5797 5797 5796 5794 5793 5791 5789 5788 5786 5785 5783 5782 5780 5779 5780 5780 5780 5780 5778 5778 5778 5779 5779 5779
5754 5757 5764 5765 5765 5764 5772 5775 5776 5776 5779 5778 5776 5781 5783 5786 5789 5791 5792 5793 5793 5793 5793 5792 5791 5791 5792 5791 5789 5788 5787 5785 5784 5782 5781 5779 5778 5777 5776 5775 5775 5775 5776 5774 5774 5774 5774 5775 5775
5742 5749 5750 5754 5755 5754 5762 5765 5766 5767 5770 5771 5770 5773 5774 5778 5781 5783 5785 5787 5788 5788 5788 5786 5785 5785 5786 5785 5784 5783 5782 5781 5779 5778 5777 5775 5773 5772 5772 5771 5770 5770 5771 5770 5770 5770 5769 5770 5771
5733 5737 5739 5742 5743 5744 5752 5752 5757 5760 5760 5762 5765 5765 5766 5770 5773 5775 5778 5780 5783 5782 5782 5780 5780 5780 5780 5780 5779 5778 5777 5776 5775 5774 5773 5770 5769 5767 5768 5767 5766 5766 5765 5766 5765 5765 5765 5765 5764
5720 5723 5726 5729 5731 5734 5739 5743 5746 5750 5751 5751 5757 5757 5759 5763 5766 5768 5770 5773 5777 5776 5774 5774 5774 5773 5773 5774 5774 5773 5773 5772 5770 5769 5768 5767 5765 5763 5763 5762 5762 5762 5761 5761 5760 5761 5760 5763 5764
5704 5708 5713 5719 5722 5722 5728 5732 5737 5742 5742 5743 5748 5748 5751 5754 5756 5759 5762 5765 5768 5769 5767 5768 5767 5767 5767 5767 5769 5768 5768 5767 5766 5765 5764 5763 5761 5760 5759 5758 5756 5755 5755 5755 5754 5754 5755 5759 5754
5690 5694 5700 5710 5710 5714 5717 5723 5729 5731 5732 5734 5738 5741 5742 5745 5748 5751 5754 5756 5759 5762 5760 5760 5761 5761 5760 5761 5763 5763 5762 5761 5760 5760 5759 5758 5757 5755 5754 5753 5751 5749 5748 5748 5748 5746 5749 5754 5756
5676 5685 5690 5695 5699 5702 5706 5714 5721 5721 5721 5725 5728 5733 5734 5736 5738 5741 5744 5749 5751 5753 5753 5753 5754 5754 5753 5754 5757 5757 5756 5756 5755 5755 5754 5753 5752 5749 5748 5746 5745 5743 5741 5741 5740 5739 5743 5749 5753
5669 5669 5677 5683 5688 5690 5696 5702 5705 5710 5713 5716 5720 5723 5725 5728 5731 5733 5736 5738 5741 5743 5746 5746 5747 5747 5748 5748 5750 5751 5751 5750 5749 5749 5749 5748 5747 5745 5742 5741 5739 5737 5735 5735 5733 5733 5738 5742 5747
5652 5658 5664 5673 5676 5680 5684 5688 5694 5699 5700 5705 5711 5714 5718 5722 5723 5725 5725 5728 5728 5731 5734 5739 5740 5743 5742 5741 5743 5744 5745 5745 5744 5743 5743 5742 5742 5740 5736 5735 5734 5732 5730 5729 5726 5727 5732 5736 5741
5637 5642 5651 5657 5664 5668 5672 5679 5684 5686 5692 5698 5702 5707 5709 5711 5713 5714 5715 5716 5718 5721 5724 5728 5732 5734 5735 5735 5736 5737 5738 5738 5738 5738 5737 5737 5736 5734 5731 5731 5729 5727 5726 5724 5721 5721 5725 5729 5735
5622 5631 5641 5646 5650 5656 5662 5670 5675 5677 5681 5686 5692 5695 5698 5701 5703 5704 5706 5708 5709 5711 5714 5715 5719 5724 5726 5727 5728 5728 5732 5733 5732 5732 5731 5731 5731 5730 5727 5726 5724 5722 5721 5720 5720 5717 5721 5726 5730
5612 5625 5629 5633 5640 5649 5653 5662 5665 5667 5670 5676 5679 5684 5687 5690 5693 5695 5696 5698 5700 5702 5704 5707 5709 5714 5716 5719 5720 5721 5725 5726 5726 5727 5726 5726 5727 5725 5723 5722 5721 5719 5718 5717 5716 5714 5717 5721 5727
5608 5611 5617 5624 5631 5637 5645 5651 5660 5658 5660 5664 5668 5673 5676 5679 5682 5685 5686 5688 5690 5692 5694 5697 5699 5703 5706 5711 5712 5713 5718 5719 5720 5721 5721 5721 5722 5720 5718 5718 5717 5715 5714 5714 5714 5714 5715 5718 5723
5599 5602 5610 5615 5622 5627 5640 5644 5653 5649 5650 5655 5659 5662 5665 5668 5671 5673 5675 5678 5680 5682 5684 5686 5689 5694 5697 5702 5704 5706 5711 5712 5714 5715 5715 5717 5717 5716 5714 5714 5713 5712 5710 5710 5710 5710 5714 5717 5719
5589 5596 5605 5611 5615 5624 5633 5636 5646 5638 5642 5648 5650 5652 5655 5657 5660 5663 5665 5667 5669 5671 5674 5676 5681 5684 5688 5693 5695 5699 5703 5705 5707 5709 5709 5713 5713 5712 5710 5709 5708 5708 5708 5707 5707 5708 5711 5713 5716
5585 5591 5600 5606 5614 5622 5623 5630 5634 5630 5636 5639 5641 5643 5646 5648 5651 5653 5655 5656 5659 5662 5665 5667 5670 5673 5678 5683 5687 5692 5695 5698 5700 5703 5704 5707 5709 5708 5706 5704 5704 5704 5703 5703 5705 5705 5707 5708 5712
5581 5586 5597 5602 5609 5615 5620 5624 5624 5627 5626 5631 5632 5634 5637 5639 5641 5643 5644 5646 5649 5651 5654 5656 5660 5663 5668 5674 5678 5684 5688 5690 5693 5696 5698 5701 5703 5704 5702 5700 5699 5700 5699 5700 5701 5703 5704 5705 5705
5577 5584 5590 5596 5603 5610 5618 5622 5620 5621 5620 5623 5626 5627 5630 5632 5633 5634 5635 5637 5638 5641 5643 5647 5650 5654 5659 5666 5671 5677 5680 5684 5687 5690 5692 5695 5697 5699 5698 5696 5696 5697 5696 5696 5698 5699 5700 5700 5700
5573 5580 5586 5593 5600 5606 5614 5616 5611 5614 5615 5616 5616 5621 5622 5622 5623 5624 5627 5629 5631 5633 5635 5638 5641 5645 5654 5659 5664 5668 5671 5676 5681 5683 5686 5689 5692 5694 5695 5693 5693 5694 5694 5694 5694 5695 5696 5697 5698
5571 5577 5585 5590 5597 5601 5606 5608 5605 5608 5608 5608 5611 5614 5614 5615 5616 5616 5619 5622 5623 5625 5628 5632 5636 5643 5648 5653 5655 5659 5663 5669 5675 5677 5680 5683 5686 5688 5690 5690 5689 5690 5690 5691 5692 5693 5693 5694 5695